Location: Barton Flats Campground
(34.1722°N, 116.8753°W)
Time: 19:19:35
(UTC+00:00)

NOSS 2-2 (E) - Pass Details

Date: 08 August 2020
Orbit: 469 x 1737 km, 63.3° (Epoch: 21 September)

Event Time Altitude Azimuth Distance (km) Brightness Sun altitude
Exits shadow 12:04:40 11° 199° (SSW) 1,570 5.2 -12.0°
Maximum altitude 12:07:58 62° 118° (ESE) 531 3.4 -11.4°
Drops below altitude 10° 12:11:30 10° 38° (NE) 1,676 6.9 -10.8°
Sets 12:13:45 0° 34° (NE) 2,635 8.0 -10.4°
